Stations météo

réclame
Mon MeteoGroup
Spa/La Sauveniere, Belgique (6490): Température de l'air & dewpoint: 17.08.2019 16:00:00 - 23.08.2019 16:00:00 (CEST)Spa/La Sauveniere, Belgique (6490): Vitesse du vent & gusts: 17.08.2019 16:00:00 - 23.08.2019 16:00:00 (CEST)Spa/La Sauveniere, Belgique (6490): Direction du vent: 17.08.2019 16:00:00 - 23.08.2019 16:00:00 (CEST)Spa/La Sauveniere, Belgique (6490): reduced air pressure: 17.08.2019 16:00:00 - 23.08.2019 16:00:00 (CEST)Spa/La Sauveniere, Belgique (6490): visibility: 17.08.2019 16:00:00 - 23.08.2019 16:00:00 (CEST)
Date & Time tt [°C] td [°C] ff [km/h] ff [knt] fx [km/h] fx [knt] dd ppp [hPa] vv [km]
23.08.2019 16:00:00 25,1 8,6 4 2 18 10 - 1023,1 30
23.08.2019 15:00:00 24,4 8,5 7 4 22 12 - 1023,6 35
23.08.2019 14:00:00 23,6 8,9 11 6 - - SSE 1024,2 35
23.08.2019 13:00:00 22,9 9,2 0 0 22 12 N 1024,7 25
23.08.2019 12:00:00 22,1 9,5 11 6 18 10 S 1025,4 35
23.08.2019 11:00:00 21,4 11,7 11 6 - - SE 1025,5 35
23.08.2019 10:00:00 20,4 13,8 11 6 18 10 ESE 1025,6 35
23.08.2019 09:00:00 - - 4 2 7 4 E - 35
23.08.2019 08:00:00 13,9 9,3 4 2 - - ESE 1026,6 30
23.08.2019 07:00:00 12,6 7,5 7 4 7 4 ESE 1026,7 26
23.08.2019 06:00:00 12,5 7,7 7 4 7 4 E 1026,8 24
23.08.2019 05:00:00 12,5 7,5 4 2 - - SSE 1027,0 35
23.08.2019 04:00:00 12,8 7,6 7 4 11 6 SE 1026,9 30
23.08.2019 03:00:00 13,7 7,6 7 4 7 4 ESE 1026,8 35
23.08.2019 02:00:00 14,0 7,7 7 4 - - E 1026,8 40
23.08.2019 01:00:00 15,0 8,2 7 4 11 6 E 1026,7 35
23.08.2019 00:00:00 14,6 7,4 7 4 7 4 E 1026,8 35
22.08.2019 23:00:00 14,9 6,7 4 2 - - E 1026,8 40
22.08.2019 22:00:00 15,6 6,5 4 2 4 2 E 1026,5 40
22.08.2019 21:00:00 16,8 7,3 0 0 7 4 N 1025,8 45
22.08.2019 20:00:00 20,7 9,0 7 4 - - N 1024,8 35
22.08.2019 19:00:00 21,8 9,2 7 4 18 10 NW 1024,4 29
22.08.2019 18:00:00 22,1 9,5 7 4 14 8 WNW 1024,4 30
22.08.2019 17:00:00 22,3 9,4 11 6 - - N 1024,5 30
22.08.2019 16:00:00 22,2 8,0 7 4 18 10 W 1024,6 30
22.08.2019 15:00:00 22,4 8,7 4 2 18 10 - 1025,0 35
22.08.2019 14:00:00 21,0 8,0 4 2 - - - 1025,5 30
22.08.2019 13:00:00 21,2 8,6 4 2 14 8 WNW 1025,6 30
22.08.2019 12:00:00 19,9 8,5 7 4 22 12 SSW 1026,1 35
22.08.2019 11:00:00 18,9 9,4 14 8 - - SSE 1026,3 30
22.08.2019 10:00:00 17,8 9,8 14 8 22 12 SSE 1026,5 30
22.08.2019 09:00:00 16,6 9,9 14 8 18 10 SSE 1026,3 40
22.08.2019 08:00:00 14,2 8,0 14 8 - - SSE 1026,5 35
22.08.2019 07:00:00 13,3 7,0 18 10 22 12 SSE 1026,4 40
22.08.2019 06:00:00 13,1 6,8 18 10 22 12 SSE 1026,4 40
22.08.2019 05:00:00 13,2 6,7 18 10 - - SSE 1026,5 40
22.08.2019 04:00:00 13,1 6,6 18 10 22 12 SSE 1026,5 40
22.08.2019 03:00:00 12,8 6,2 18 10 22 12 SSE 1026,8 40
22.08.2019 02:00:00 12,6 6,1 14 8 - - SE 1027,1 45
22.08.2019 01:00:00 13,8 6,8 14 8 22 12 SE 1027,2 40
22.08.2019 00:00:00 13,6 6,5 11 6 18 10 SE 1027,4 40
21.08.2019 23:00:00 14,1 7,0 11 6 - - SE 1027,2 40
21.08.2019 22:00:00 13,1 6,2 4 2 7 4 SE 1027,6 30
21.08.2019 21:00:00 15,1 7,2 4 2 7 4 ESE 1026,9 30
21.08.2019 20:00:00 17,9 8,7 4 2 - - NE 1026,3 30
21.08.2019 19:00:00 18,7 9,3 7 4 11 6 NE 1026,3 30
21.08.2019 18:00:00 20,5 8,5 4 2 11 6 E 1026,3 35
21.08.2019 17:00:00 19,9 8,1 7 4 - - S 1026,4 27
21.08.2019 16:00:00 19,4 8,2 7 4 11 6 WSW 1026,8 35
21.08.2019 15:00:00 18,4 7,4 4 2 14 8 WNW 1027,3 35
21.08.2019 14:00:00 17,5 7,8 7 4 - - - 1027,9 30
21.08.2019 13:00:00 18,4 8,4 4 2 18 10 - 1028,1 27
21.08.2019 12:00:00 17,5 8,6 11 6 18 10 W 1028,5 28
21.08.2019 11:00:00 16,5 9,9 7 4 - - S 1028,8 24
21.08.2019 10:00:00 15,2 10,2 11 6 22 12 SSE 1028,8 22
21.08.2019 09:00:00 13,5 9,5 14 8 22 12 SSE 1028,9 16
21.08.2019 08:00:00 11,6 9,7 7 4 - - SE 1028,9 14
21.08.2019 07:00:00 8,5 7,4 7 4 7 4 SSE 1029,4 12
21.08.2019 06:00:00 8,5 5,2 4 2 7 4 E 1029,1 18
21.08.2019 05:00:00 8,5 4,9 4 2 - - ESE 1028,9 29
21.08.2019 04:00:00 9,7 5,7 7 4 11 6 SSE 1028,7 30
21.08.2019 03:00:00 9,6 5,3 7 4 7 4 SE 1028,6 24
21.08.2019 02:00:00 9,8 5,3 4 2 - - SSE 1028,6 22
21.08.2019 01:00:00 10,8 5,6 4 2 11 6 SSW 1028,3 29
21.08.2019 00:00:00 13,0 6,6 4 2 7 4 W 1027,6 29
20.08.2019 23:00:00 13,3 6,0 7 4 - - SW 1027,0 30
20.08.2019 22:00:00 13,2 5,5 7 4 11 6 SW 1026,7 30
20.08.2019 21:00:00 14,4 6,0 7 4 14 8 SW 1026,0 35
20.08.2019 20:00:00 16,6 7,0 7 4 - - NW 1025,0 30
20.08.2019 19:00:00 16,8 6,3 7 4 25 14 W 1024,6 35
20.08.2019 18:00:00 17,7 6,7 11 6 25 14 W 1023,9 30
20.08.2019 17:00:00 17,8 7,2 11 6 - - W 1023,9 30
20.08.2019 16:00:00 17,1 7,8 14 8 25 14 WNW 1023,5 35
20.08.2019 15:00:00 16,8 8,5 11 6 25 14 NW 1023,7 30
20.08.2019 14:00:00 16,3 8,1 14 8 - - W 1023,6 28
20.08.2019 13:00:00 15,5 6,6 11 6 22 12 W 1023,7 30
20.08.2019 12:00:00 15,3 7,1 11 6 22 12 W 1023,6 35
20.08.2019 11:00:00 14,2 7,9 11 6 - - WNW 1023,4 30
20.08.2019 10:00:00 14,0 9,8 7 4 18 10 WSW 1023,0 24
20.08.2019 09:00:00 12,7 9,1 7 4 14 8 WSW 1023,2 21
20.08.2019 08:00:00 10,9 6,9 7 4 - - SW 1023,3 23
20.08.2019 07:00:00 8,9 5,1 7 4 14 8 SSW 1023,2 22
20.08.2019 06:00:00 9,4 5,1 11 6 14 8 S 1022,7 29
20.08.2019 05:00:00 10,1 5,5 7 4 - - SSW 1022,5 35
20.08.2019 04:00:00 10,9 6,0 11 6 14 8 SW 1022,1 30
20.08.2019 03:00:00 11,7 6,4 11 6 14 8 SW 1022,1 28
20.08.2019 02:00:00 12,2 6,6 11 6 - - SW 1022,0 27
20.08.2019 01:00:00 12,7 6,9 11 6 14 8 SW 1021,9 30
20.08.2019 00:00:00 12,9 6,9 7 4 18 10 SW 1021,3 30
19.08.2019 23:00:00 14,8 7,4 11 6 - - WSW 1020,6 35
19.08.2019 22:00:00 13,9 5,8 11 6 14 8 SW 1020,2 45
19.08.2019 21:00:00 14,8 6,5 11 6 18 10 SW 1019,5 40
19.08.2019 20:00:00 17,0 7,8 11 6 - - WSW 1018,7 40
19.08.2019 19:00:00 17,9 7,7 14 8 29 16 WSW 1018,3 35
19.08.2019 18:00:00 18,3 7,2 14 8 32 18 WSW 1018,2 30
19.08.2019 17:00:00 18,1 7,5 14 8 - - WSW 1018,0 30
19.08.2019 16:00:00 17,4 7,6 14 8 36 19 W 1018,1 40
19.08.2019 15:00:00 17,9 7,6 18 10 36 19 W 1017,8 30
19.08.2019 14:00:00 16,9 7,9 14 8 - - W 1017,6 35
19.08.2019 13:00:00 16,8 8,1 18 10 32 18 W 1017,3 30
19.08.2019 12:00:00 16,1 8,1 14 8 32 18 W 1017,1 30
19.08.2019 11:00:00 15,0 8,4 14 8 - - SW 1017,1 27
19.08.2019 10:00:00 13,7 9,2 14 8 25 14 WSW 1016,9 22
19.08.2019 09:00:00 12,6 9,1 14 8 22 12 SW 1016,8 26
19.08.2019 08:00:00 11,6 9,5 14 8 - - SW 1016,5 21
19.08.2019 07:00:00 10,9 7,9 11 6 22 12 SSW 1016,1 26
19.08.2019 06:00:00 11,2 7,6 14 8 22 12 SW 1015,7 30
19.08.2019 05:00:00 11,5 9,8 14 8 - - SW 1015,4 29
19.08.2019 04:00:00 11,8 8,1 11 6 14 8 SW 1014,8 29
19.08.2019 03:00:00 11,7 10,9 11 6 18 10 SSW 1014,7 30
19.08.2019 02:00:00 12,3 11,2 11 6 - - S 1014,5 35
19.08.2019 01:00:00 12,4 9,1 11 6 14 8 SW 1013,6 35
19.08.2019 00:00:00 12,9 9,7 7 4 18 10 WSW 1013,1 40
18.08.2019 23:00:00 14,2 11,4 11 6 - - W 1012,4 40
18.08.2019 22:00:00 14,5 13,2 11 6 22 12 SW 1011,4 45
18.08.2019 21:00:00 14,6 12,3 14 8 22 12 SSW 1010,9 45
18.08.2019 20:00:00 15,6 13,0 11 6 - - SSW 1010,2 40
18.08.2019 19:00:00 15,6 12,5 7 4 22 12 WSW 1010,1 40
18.08.2019 18:00:00 15,4 13,9 11 6 32 18 W 1009,8 40
18.08.2019 17:00:00 16,1 15,3 18 10 - - W 1008,9 7
18.08.2019 16:00:00 17,3 16,1 18 10 40 21 W 1007,5 40
18.08.2019 15:00:00 18,5 16,6 22 12 36 19 SW 1006,2 40
18.08.2019 14:00:00 18,1 16,6 11 6 - - WSW 1006,3 23
18.08.2019 13:00:00 18,5 16,0 29 16 50 27 SW 1005,2 45
18.08.2019 12:00:00 18,2 15,6 22 12 43 23 SSW 1004,4 35
18.08.2019 11:00:00 17,6 16,1 22 12 - - SSW 1004,1 40
18.08.2019 10:00:00 16,5 15,1 18 10 36 19 S 1004,3 7
18.08.2019 09:00:00 15,2 14,1 22 12 32 18 S 1005,0 18
18.08.2019 08:00:00 13,5 11,1 18 10 - - SSE 1006,0 11
18.08.2019 07:00:00 13,5 12,2 11 6 22 12 S 1007,1 40
18.08.2019 06:00:00 13,3 12,1 14 8 22 12 S 1007,7 45
18.08.2019 05:00:00 12,8 11,4 7 4 - - SW 1008,5 24
18.08.2019 04:00:00 12,1 11,4 7 4 32 18 W 1009,1 7
18.08.2019 03:00:00 16,1 14,9 11 6 32 18 SSW 1007,9 9
18.08.2019 02:00:00 16,0 14,8 18 10 - - S 1008,0 12
18.08.2019 01:00:00 16,0 14,8 14 8 29 16 S 1008,4 13
18.08.2019 00:00:00 16,1 14,9 14 8 25 14 S 1008,8 14
17.08.2019 23:00:00 16,1 13,8 14 8 - - SSW 1009,4 19
17.08.2019 22:00:00 16,2 14,8 14 8 25 14 SSW 1009,3 45
17.08.2019 21:00:00 16,2 15,0 14 8 29 16 SSW 1009,2 45
17.08.2019 20:00:00 16,4 13,8 14 8 - - SSW 1009,1 35
17.08.2019 19:00:00 16,7 14,8 14 8 36 19 SSW 1009,9 45
17.08.2019 18:00:00 16,6 14,8 22 12 36 19 SSW 1009,6 15
17.08.2019 17:00:00 16,9 14,1 14 8 - - SSW 1009,8 45
17.08.2019 16:00:00 16,5 14,6 14 8 29 16 S 1009,8 45

tt = Température de l'air
td = dewpoint
ff = Vitesse du vent
fx = gusts
dd = Direction du vent
ppp = reduced air pressure
vv = visibility

stations d'obs. à proximité